Location: Newark
(4.2170°N, 12.9170°E)
Time: 02:48:06
(UTC+00:00)

N. Korean satellite - Pass Details

Date: 17 November 2019
Orbit: 456 x 506 km, 97.2° (Epoch: 06 December)

Event Time Altitude Azimuth Distance (km) Brightness Sun altitude
Rises 04:01:58 0° 34° (NE) 2,563 10.4 -13.5°
Reaches altitude 10° 04:04:27 10° 52° (NE) 1,674 9.7 -12.9°
Maximum altitude 04:07:08 20° 100° (E) 1,179 9.6 -12.2°
Drops below altitude 10° 04:09:47 10° 148° (SSE) 1,657 10.0 -11.6°
Sets 04:12:13 0° 166° (SSE) 2,527 10.7 -11.0°
